Погода Карасу

Погода Карасу : погода сейчас, прогноз погоды и архив. Всё, что Вы хотите узнать о погоде Карасу!

Поиск расширенной информации на нашем сайте:

Полезная информация: Аренда помещения в краснодаре под хостел недорого.

Другие новости

Новости СМИ2

Главная страница сайта

Новости сайта

02.10.2013

Напоминаем, что на нашем новом сайте вы можете получить высокодетализированные прогнозы погоды по пунктам России, СНГ и мира (включающие важные для авиации метеовеличины, такие как направление и скорость ветра, видимость, явления погоды, количество и форма облачности, нижняя и верхняя граница облачности), а также ознакомиться с разнообразными материалами по авиационной метеорологии и подборкой полезных ссылок на эту тему.

Сайт Метеоцентр.Азия посвящён разработке технологий оптимизации авиаметеорологического обслуживания, включая проектирование и перспективное создание нескольких автоматизированных авиаметеорологических систем:
- система выпуска высокодетальных прогностических карт явлений погоды для нижнего воздушного пространства по России и ближнему зарубежью;
- система верификации прогнозов TAF (выпускаемых синоптиками официальных АМСГ РФ и ближнего зарубежья) и AUTOTAF (выпускаемых сайтом Метеоцентр.Азия) - выявление ошибок, онлайн-сопоставление с фактической погодой METAR, автоматическое внесение коррективов в прогнозы при резком отклонении фактической погоды от прогноза, подсчёт оправдываемости прогнозов по элементам и в целом;
- система обработки, анализа и отображения авиаметеорологической информации для применения провайдерами метеорологической информации.

Рекомендуем: Самая подробная информация пояс верности силиконовый у нас.

Погода Карасу - сегодня

Время (UTC), дата Ветер
(°,м/с) 
Видим.   Явления Облачность Т
(°С)
Тd
(°С)
f(%) Тe
(°С)
Pmin
(гПа)
dP
(гПа)
Po
(мм)
O2
(г/м3)
Тmin Tmax R s Состояние
почвы
21 23.04.17 230 (ЮЗ) н/о    ясно 
+10.2 +6.8 79 +11  1021.5  -2.2  691  267           
00 24.04.17 180 (Ю) н/о    1/1 600 м 
[Sc]
+7.9 +5.6 85 +9  1021.1  -1.2  690  269           
03 24.04.17 180 (Ю) 20000 м    1/1 600 м 
[Sc]
+15.6 +7.8 60 +17  1018.8  0.5  691  262           
06 24.04.17 270 (З) 20000 м    ясно 
+21 +6.1 38 +21  1015.7  -1.1  690  257  +7.3         
09 24.04.17 360 (С) 20000 м    1/1 600 м 
[Sc]
+23.5 +6.1 33 +24  1012.7  -2  688  254           
12 24.04.17 270 (З) 20000 м    1/1 600 м 
[Sc]
+24.3 +5.5 30 +24  1011.6  -0.8  688  254           
15 24.04.17 070 (В) н/о    ясно 
+15 +10.3 73 +19  1014.2  -0.3  688  261    +25       
18 24.04.17 280 (З) н/о    ясно 
+14 +9 72 +17  1014.6  -0.1  688  262    +25       
21 24.04.17 тихо ()   н/о    ясно 
+12.5 +9.3 81 +14  1014.5  -0.5  687  263           
00 25.04.17 тихо ()   н/о    ясно 
+11.1 +3.4 59 +11  1014.9  -0.3  687  265           
03 25.04.17 270 (З) 20000 м    ясно 
+19.2 +6.1 42 +21  1012.4  0.5  687  258           
06 25.04.17 тихо ()   20000 м    ясно 
+24.9 +5 28 +25  1010.5  -0.1  687  253  +10.7         
09 25.04.17 320 (СЗ) 20000 м    ясно 
+26.3 +9.9 36 +29  1008.9  -0.9  687  250           
12 25.04.17 320 (СЗ) 20000 м    ясно 
+27.5 +9 31 +29  1008  -0.5  686  250           
15 25.04.17 270 (З) н/о    ясно 
+18 +10.7 62 +23  1011.4  0.3  686  257    +27.7       
18 25.04.17 180 (Ю) н/о    ясно 
+14.4 +10 75 +19  1013.8  687  261    +27.7       
21 25.04.17 090 (В) н/о    ясно 
+12.9 +9.5 80 +14  1014.1  -0.3  687  262           
00 26.04.17 140 (ЮВ) н/о    ясно 
+15 +3.6 46 +15  1013.7  0.2  687  262           
03 26.04.17 050 (СВ) 20000 м    ясно 
+18.4 +9.9 58 +23  1013.3  0.9  688  258           
06 26.04.17 тихо ()   20000 м    ясно 
+24.1 +9.4 39 +26  1012.1  0.6  688  253  +12.9         
09 26.04.17 270 (З) 20000 м    ясно 
+26.1 +8.4 33 +27  1011.1  -0.3  688  251           
12 26.04.17 290 (З) 20000 м    ясно 
+26.9 +5.9 26 +27  1010.8  -0.1  688  251           
15 26.04.17 тихо ()   н/о    ясно 
+18.2 +11.9 67 +24  1014.3  0.7  688  258    +27.1       
18 26.04.17 140 (ЮВ) н/о    ясно 
+17.4 +9.2 59 +20  1016.5  1.6  690  259    +27.1       
21 26.04.17 090 (В) н/о    ясно 
+15.6 +8.8 64 +17  1017.4  0.3  690  261           
Время (UTC), дата Ветер
(°,м/с) 
Видим.   Явления Облачность Т
(°С)
Тd
(°С)
f(%) Тe
(°С)
Pmin
(гПа)
dP
(гПа)
Po
(мм)
O2
(г/м3)
Тmin Tmax R s Состояние
почвы

Для получения пояснительной информации подведите курсор к названию столбца.

ПОГОДА Карасу - архив

Всё, что Вы хотите узнать о погоде Карасу - удобно и подробно!

Выберите нужную дату (начиная с 1 января 2015* года) и нажмите кнопку "Найти".
Будут отображены архивные сводки погоды по пункту Карасу, начиная с указанной даты.


Отображать данные в формате CSV (для использования в таблицах Excel)


Внимание! Наш архив погоды предназначен исключительно для личного некоммерческого использования в познавательных целях. Если Вам необходимы официальные справки о состоянии погоды (для производственных, юридических, коммерческих и т.п. целей), обращайтесь в органы Росгидромета.

*Примечание: данная дата относится к архиву по метеостанциям СССР (Россия, СНГ, Балтия).
Архив по метеостанциям Зарубежной Европы и Азии (кроме Китая) хранится 10 дней, по другим регионам земного шара (Китай, Африка, Америка, Австралия, Океания) - 1 день.

Карасу - район местоположения метеостанции


Название, широта, долгота, высота метеостанции:
Карасу 40.7°ш. 72.9°д. 865 м над ур. моря [Кыргызстан]

Дополнительная информация

В oтличие oт бoльшинства пoгoдных сайтoв мы публикуем пoдрoбную метеoинфoрмацию в детальнoм прoфессиoнальнoм фoрмате.

Характеристики температуры и влажнoсти вoздуха измеряются на высoте 2 м в тени вдали oт зданий и деревьев.
Скoрoсть ветра измеряется на высoте 10 м (на урoвне рoста челoвека скoрoсть ветра ниже в 1.5-2 раза). Если метеoстанция нахoдится в гoрoде или в лесу, тo скoрoсть ветра занижена на 2-4 м/с пo сравнению с oткрытым местoм. Скoрoсть ветра над акватoриями крупных рек и oзёр, а также на вершинах хoлмoв на 2-5 м/с выше, чем в oбычных услoвиях.
Атмoсфернoе давление в разных тoчках местнoсти мoжет значительнo oтличаться oт давления на метеoстанции, в зависимoсти oт услoвий рельефа (при пoдъёме на 10 м давление пoнижается примернo на 1 мм рт.ст.).